This demonstration page uses our WeatherBlox Daily Observations layout. Learn more.

Left ArrowRight Arrow

38.20091, -84.87328

Hourly Observations for August 29, 2021

Temp ( °F °C ) Dew Point ( °F °C ) Humidity (%) Winds ( mph kmh ) Pressure ( in mb ) Visibility ( mi km ) Precip ( " mm )
12:53 am 00:53 Clear 77 25 72 22.2 85 85 Calm 30.14 1021 10 16 0.00 0.00
1:53 am 01:53 Clear 74 23.3 72 22.2 94 94 Calm 30.13 1020 10 16 0.00 0.00
2:53 am 02:53 Clear 73 22.8 71 21.7 94 94 Calm 30.11 1020 10 16 0.00 0.00
3:53 am 03:53 Clear 73 22.8 71 21.7 94 94 Calm 30.10 1019 10 16 0.00 0.00
4:53 am 04:53 Clear 73 22.8 71 21.7 94 94 Calm 30.11 1020 10 16 0.00 0.00
5:53 am 05:53 Clear 73 22.8 71 21.7 94 94 Calm 30.11 1020 10 16 0.00 0.00
6:53 am 06:53 Clear 73 22.8 71 21.7 94 94 Calm 30.13 1020 10 16 0.00 0.00
7:53 am 07:53 Sunny 74 23.3 72 22.2 94 94 S 3 6 30.15 1021 10 16 0.00 0.00
8:53 am 08:53 Sunny 78 25.6 73 22.8 85 85 S 7 11 30.16 1021 10 16 0.00 0.00
9:53 am 09:53 Sunny 81 27.2 72 22.2 74 74 SW 8 13 30.16 1021 10 16 0.00 0.00
10:53 am 10:53 Sunny 85 29.4 73 22.8 68 68 SW 10 17 30.15 1021 10 16 0.00 0.00
11:53 am 11:53 Sunny 88 31.1 72 22.2 59 59 SW 9 15 30.14 1021 10 16 0.00 0.00
12:53 pm 12:53 Sunny 89 31.7 71 21.7 55 55 SW 7 11 30.12 1020 10 16 0.00 0.00
1:53 pm 13:53 Sunny 88 31.1 72 22.2 59 59 WSW 9 15 30.10 1019 10 16 0.00 0.00
2:53 pm 14:53 Sunny 89 31.7 71 21.7 55 55 VRB 6 9 30.07 1018 10 16 0.00 0.00
3:53 pm 15:53 Mostly Sunny 91 32.8 70 21.1 50 50 SSW 9 15 30.04 1017 10 16 0.00 0.00
4:53 pm 16:53 Mostly Sunny 90 32.2 70 21.1 52 52 SW 9 15 30.02 1017 10 16 0.00 0.00
5:53 pm 17:53 Sunny 90 32.2 72 22.2 56 56 VRB 5 7 30.01 1016 10 16 0.00 0.00
6:53 pm 18:53 Sunny 88 31.1 72 22.2 59 59 SW 7 11 30.01 1016 10 16 0.00 0.00
7:53 pm 19:53 Sunny 86 30 72 22.2 63 63 SSW 6 9 30.01 1016 10 16 0.00 0.00
8:53 pm 20:53 Clear 83 28.3 73 22.8 72 72 S 5 7 30.03 1017 10 16 0.00 0.00
9:53 pm 21:53 Clear 82 27.8 73 22.8 74 74 S 6 9 30.05 1018 10 16 0.00 0.00
10:53 pm 22:53 Clear 77 25 73 22.8 88 88 S 3 6 30.05 1018 10 16 0.00 0.00
11:53 pm 23:53 Clear 78 25.6 73 22.8 85 85 SSW 3 6 30.05 1018 10 16 0.00 0.00

Powered by AerisWeather